Location: Frydek-Mistek
(49.6830°N, 18.3330°E)
Time: 11:47:14
(UTC+02:00)

ISS - Visible Passes

Search period start: 16 June 2025 00:00
Search period end: 26 June 2025 00:00
Orbit: 415 x 417 km, 51.6° (Epoch: 15 June)

Date Brightness Start Highest point End Pass type
(mag) Time Alt. Az. Time Alt. Az. Time Alt. Az.
23 Jun -1.8 03:46:09 10° S 03:48:34 18° SE 03:50:58 10° E visible
24 Jun -1.3 02:58:40 10° SSE 03:00:03 12° SE 03:01:26 10° ESE visible
25 Jun -2.9 03:44:25 10° SW 03:47:32 37° SSE 03:50:40 10° E visible
